Date String (YYYY-MM-DD hh:mm:ss) UTC,Instrument flags,Ambient pressure (hPa),Sample flow (lpm),Bypass flow (lpm),Sample temperature (°C),Ambient temperature (°C),ASC tube jacket temperature (°C),LED temperature (°C),Box temperature (°C),Sample RH (%),Span deviation,Mass concentration (μg/m³),Mass concentration (μg/m³),Mass concentration (μg/m³)
DateTimeUTC,F1_M11,P_M11,Q1_M11,Q2_M11,T1_M11,T2_M11,T3_M11,T4_M11,T5_M11,U1_M11,ZSPAN_M11,X0_M11,X2_M11,X1_M11
2022-05-27 04:00:00,,0826.9,5.00,0.00,29.7,28.8,00.0,38.5,31.6,11.6,0000.0,0006.37,0002.52,0001.62
2022-05-27 04:01:00,,0827.0,5.00,0.00,29.7,28.8,00.0,38.5,31.7,11.4,0000.0,0006.97,0002.57,0001.61
2022-05-27 04:02:00,,0827.0,5.00,0.00,29.8,28.9,00.0,38.5,31.7,11.4,0000.0,0007.07,0002.59,0001.61
2022-05-27 04:03:00,,0827.0,5.00,0.00,29.8,28.9,00.0,38.6,31.7,11.6,0000.0,0006.56,0002.60,0001.62
2022-05-27 04:04:00,,0826.9,5.00,0.00,29.8,28.7,00.0,38.5,31.7,11.5,0000.0,0006.74,0002.55,0001.62
2022-05-27 04:05:00,,0826.9,5.00,0.00,29.7,27.8,00.0,38.5,31.4,11.0,0000.0,0007.27,0002.52,0001.60
2022-05-27 04:06:00,,0827.0,4.99,0.00,29.7,27.3,00.0,38.4,31.3,11.0,0000.0,0007.36,0002.49,0001.59
2022-05-27 04:07:00,,0826.9,5.00,0.00,29.6,27.3,00.0,38.4,31.2,11.3,0000.0,0007.31,0002.48,0001.58
2022-05-27 04:08:00,,0826.9,5.00,0.00,29.5,27.4,00.0,38.4,31.2,11.5,0000.0,0007.40,0002.44,0001.58
2022-05-27 04:09:00,,0826.9,4.99,0.00,29.5,27.5,00.0,38.4,31.2,11.6,0000.0,0007.62,0002.47,0001.58
2022-05-27 04:10:00,,0827.0,5.00,0.00,29.5,27.6,00.0,38.4,31.2,11.4,0000.0,0007.75,0002.49,0001.58
2022-05-27 04:11:00,,0827.0,5.01,0.00,29.4,27.8,00.0,38.4,31.2,11.4,0000.0,0007.86,0002.49,0001.57
2022-05-27 04:12:00,,0827.0,5.01,0.00,29.4,27.9,00.0,38.4,31.3,11.4,0000.0,0008.42,0002.42,0001.57
2022-05-27 04:13:00,,0827.0,5.00,0.00,29.5,28.0,00.0,38.4,31.3,11.3,0000.0,0008.63,0002.39,0001.55
2022-05-27 04:14:00,,0827.0,5.00,0.00,29.5,28.1,00.0,38.4,31.3,11.2,0000.0,0008.26,0002.33,0001.54
2022-05-27 04:15:00,,0827.0,5.01,0.00,29.5,28.2,00.0,38.4,31.3,11.3,0000.0,0008.18,0002.32,0001.54
2022-05-27 04:16:00,,0826.9,5.00,0.00,29.5,28.3,00.0,38.4,31.4,11.2,0000.0,0008.29,0002.33,0001.54
2022-05-27 04:17:00,,0826.9,4.99,0.00,29.5,28.4,00.0,38.4,31.4,11.2,0000.0,0008.15,0002.33,0001.55
2022-05-27 04:18:00,,0827.0,5.01,0.00,29.5,28.4,00.0,38.4,31.4,11.1,0000.0,0008.12,0002.29,0001.55
2022-05-27 04:19:00,,0827.0,4.99,0.00,29.6,28.5,00.0,38.4,31.4,11.1,0000.0,0008.05,0002.29,0001.57
2022-05-27 04:20:00,,0827.0,5.00,0.00,29.6,28.5,00.0,38.4,31.5,11.3,0000.0,0007.74,0002.30,0001.57
2022-05-27 04:21:00,,0827.0,5.01,0.00,29.6,28.6,00.0,38.4,31.5,11.4,0000.0,0007.60,0002.24,0001.55
2022-05-27 04:22:00,,0827.0,4.99,0.00,29.6,28.6,00.0,38.4,31.5,11.3,0000.0,0007.92,0002.22,0001.55
2022-05-27 04:23:00,,0827.0,4.99,0.00,29.6,28.7,00.0,38.5,31.5,11.3,0000.0,0007.83,0002.28,0001.55
2022-05-27 04:24:00,,0827.0,5.00,0.00,29.7,28.7,00.0,38.5,31.6,11.3,0000.0,0006.75,0002.31,0001.57
2022-05-27 04:25:00,,0826.9,5.01,0.00,29.7,28.7,00.0,38.5,31.6,11.3,0000.0,0006.69,0002.32,0001.58
2022-05-27 04:26:00,,0827.0,4.99,0.00,29.7,28.8,00.0,38.5,31.6,11.3,0000.0,0006.92,0002.32,0001.58
2022-05-27 04:27:00,,0827.0,4.99,0.00,29.7,28.8,00.0,38.5,31.6,11.3,0000.0,0006.01,0002.31,0001.58
2022-05-27 04:28:00,,0827.0,5.01,0.00,29.8,28.8,00.0,38.6,31.7,11.3,0000.0,0006.18,0002.30,0001.58
2022-05-27 04:29:00,,0827.0,5.01,0.00,29.8,28.8,00.0,38.6,31.7,11.3,0000.0,0006.29,0002.35,0001.58
2022-05-27 04:30:00,,0826.9,5.01,0.00,29.8,28.9,00.0,38.6,31.7,11.2,0000.0,0006.55,0002.43,0001.59
2022-05-27 04:31:00,,0826.9,5.00,0.00,29.8,28.9,00.0,38.6,31.7,11.1,0000.0,0006.67,0002.43,0001.59
2022-05-27 04:32:00,,0826.9,5.00,0.00,29.8,28.3,00.0,38.6,31.6,11.0,0000.0,0007.18,0002.49,0001.61
2022-05-27 04:33:00,,0826.9,5.01,0.00,29.7,27.4,00.0,38.5,31.4,11.1,0000.0,0006.90,0002.48,0001.62
2022-05-27 04:34:00,,0826.9,4.98,0.00,29.6,27.2,00.0,38.5,31.2,11.3,0000.0,0005.98,0002.49,0001.61
2022-05-27 04:35:00,,0826.8,5.01,0.00,29.5,27.2,00.0,38.4,31.1,11.2,0000.0,0006.18,0002.44,0001.61
2022-05-27 04:36:00,,0826.9,4.99,0.00,29.5,27.3,00.0,38.4,31.1,11.3,0000.0,0006.22,0002.47,0001.61
2022-05-27 04:37:00,,0826.9,4.98,0.00,29.4,27.4,00.0,38.4,31.2,11.4,0000.0,0005.94,0002.46,0001.60
2022-05-27 04:38:00,,0826.9,5.02,0.00,29.4,27.6,00.0,38.4,31.2,11.4,0000.0,0005.73,0002.45,0001.60
2022-05-27 04:39:00,,0826.9,5.00,0.00,29.4,27.7,00.0,38.4,31.2,11.3,0000.0,0005.39,0002.46,0001.59
2022-05-27 04:40:00,,0826.9,4.99,0.00,29.4,27.8,00.0,38.4,31.2,11.0,0000.0,0005.12,0002.40,0001.59
2022-05-27 04:41:00,,0826.9,5.00,0.00,29.4,27.9,00.0,38.4,31.2,11.4,0000.0,0004.89,0002.34,0001.58
2022-05-27 04:42:00,,0826.9,5.01,0.00,29.4,28.0,00.0,38.4,31.3,11.4,0000.0,0004.73,0002.31,0001.56
2022-05-27 04:43:00,,0826.9,5.00,0.00,29.5,28.1,00.0,38.4,31.3,11.5,0000.0,0004.40,0002.28,0001.54
2022-05-27 04:44:00,,0826.9,4.99,0.00,29.5,28.2,00.0,38.4,31.3,11.5,0000.0,0004.31,0002.32,0001.53
2022-05-27 04:45:00,,0827.0,5.01,0.00,29.5,28.3,00.0,38.4,31.3,11.5,0000.0,0004.09,0002.34,0001.54
2022-05-27 04:46:00,,0826.9,5.00,0.00,29.5,28.3,00.0,38.4,31.4,11.6,0000.0,0003.75,0002.34,0001.53
2022-05-27 04:47:00,,0826.9,5.01,0.00,29.5,28.4,00.0,38.4,31.4,11.5,0000.0,0003.83,0002.37,0001.52
2022-05-27 04:48:00,,0826.9,4.99,0.00,29.5,28.4,00.0,38.4,31.4,11.6,0000.0,0003.95,0002.39,0001.52
2022-05-27 04:49:00,,0826.9,5.00,0.00,29.6,28.5,00.0,38.4,31.4,11.7,0000.0,0004.34,0002.42,0001.52
2022-05-27 04:50:00,,0826.9,5.00,0.00,29.6,28.5,00.0,38.4,31.4,11.5,0000.0,0005.73,0002.42,0001.53
2022-05-27 04:51:00,,0826.9,4.99,0.00,29.6,28.5,00.0,38.4,31.5,11.6,0000.0,0007.30,0002.48,0001.53
2022-05-27 04:52:00,,0826.9,5.00,0.00,29.6,28.6,00.0,38.4,31.5,11.5,0000.0,0007.29,0002.47,0001.52
2022-05-27 04:53:00,,0826.8,5.02,0.00,29.6,28.6,00.0,38.5,31.5,11.5,0000.0,0007.24,0002.44,0001.53
2022-05-27 04:54:00,,0826.8,4.99,0.00,29.6,28.6,00.0,38.5,31.5,11.3,0000.0,0007.19,0002.41,0001.55
2022-05-27 04:55:00,,0826.9,5.00,0.00,29.7,28.7,00.0,38.5,31.5,11.4,0000.0,0007.60,0002.38,0001.56
2022-05-27 04:56:00,,0826.9,5.01,0.00,29.7,28.7,00.0,38.5,31.6,11.5,0000.0,0007.66,0002.34,0001.56
2022-05-27 04:57:00,,0826.9,5.01,0.00,29.7,28.7,00.0,38.5,31.6,11.4,0000.0,0007.68,0002.31,0001.57
2022-05-27 04:58:00,,0826.8,4.99,0.00,29.7,28.7,00.0,38.5,31.6,11.7,0000.0,0007.77,0002.34,0001.57
2022-05-27 04:59:00,,0826.9,5.02,0.00,29.7,28.7,00.0,38.5,31.6,11.6,0000.0,0007.81,0002.37,0001.59
